User: anonymous   Login
Location: Althorst
(53.6379°N, 10.7715°E)
Time: 00:23:38
(UTC+00:00)
Language:

Cosmos 2263 - Orbit

View from above orbital plane
View from above orbital plane
View from above satellite
View from above satellite

Ground track
Ground track

The orbit data is extracted from the following two-line orbital elements,

1 22802U 93059A   20047.47990121 -.00000138 +00000-0 -47822-4 0  9997
2 22802 070.9234 073.9997 0025571 211.6856 148.2728 14.13182572362551
Epoch (UTC): 16 February 2020 11:31:03
Eccentricity: 0.0025571
inclination: 70.9234°
perigee height: 830 km
apogee height: 867 km
right ascension of ascending node: 73.9997°
argument of perigee: 211.6856°
revolutions per day: 14.13182572
mean anomaly at epoch: 148.2728°
orbit number at epoch: 36255

The dashed part of the orbit path shows where the satellite is in the earth's shadow,  

DLR